User: anonymous   Login
Location: Gro�sch�nbrunn
(49.5760°N, 11.8868°E)
Time: 09:48:59
(UTC+00:00)
Language:

Ariane Rocket - Orbit

View from above orbital plane
View from above orbital plane
View from above satellite
View from above satellite

Ground track
Ground track

The orbit data is extracted from the following two-line orbital elements,

1 23561U 95021B   20337.41419969  .00000088  00000-0  44202-4 0  9994
2 23561  98.7040  19.0096 0007960 113.7420 257.6117 14.37996030342710
Epoch (UTC): 02 December 2020 09:56:26
Eccentricity: 0.0007960
inclination: 98.7040°
perigee height: 759 km
apogee height: 771 km
right ascension of ascending node: 19.0096°
argument of perigee: 113.7420°
revolutions per day: 14.37996030
mean anomaly at epoch: 257.6117°
orbit number at epoch: 34271

The dashed part of the orbit path shows where the satellite is in the earth's shadow,  

DLR